Time,TemperatureF,DewpointF,PressureIn,WindDirection,WindDirectionDegrees,WindSpeedMPH,WindSpeedGustMPH,Humidity,HourlyPrecipIn,Conditions,Clouds,dailyrainin,SoftwareType,DateUTC
2013-09-16 00:01:00,81.5,79.5,29.88,East,90,6.0,8.0,94,0.00,,,0.01,meteohub,2013-09-16 04:01:00,
2013-09-16 00:02:00,81.5,79.5,29.88,East,90,4.0,8.0,94,0.00,,,0.01,meteohub,2013-09-16 04:02:00,
2013-09-16 00:03:00,81.5,79.5,29.88,East,90,4.0,8.0,94,0.00,,,0.01,meteohub,2013-09-16 04:03:00,
2013-09-16 00:08:00,81.3,79.7,29.88,East,90,4.0,8.0,95,0.00,,,0.01,meteohub,2013-09-16 04:08:00,
2013-09-16 00:13:00,81.1,79.5,29.88,NE,45,4.0,6.0,95,0.00,,,0.01,meteohub,2013-09-16 04:13:00,
2013-09-16 00:14:00,81.1,79.5,29.88,NE,45,2.0,6.0,95,0.00,,,0.01,meteohub,2013-09-16 04:14:00,
2013-09-16 00:19:00,81.1,79.9,29.88,NE,45,3.0,7.0,96,0.00,,,0.01,meteohub,2013-09-16 04:19:00,
2013-09-16 00:24:00,80.8,79.9,29.88,East,90,1.0,7.0,97,0.00,,,0.01,meteohub,2013-09-16 04:24:00,
2013-09-16 00:29:00,80.4,79.9,29.88,East,90,1.0,7.0,98,0.00,,,0.01,meteohub,2013-09-16 04:29:00,
2013-09-16 00:35:00,80.1,79.7,29.88,East,90,1.0,5.0,99,0.00,,,0.01,meteohub,2013-09-16 04:35:00,
2013-09-16 00:40:00,79.9,79.5,29.88,East,90,1.0,4.0,99,0.01,,,0.02,meteohub,2013-09-16 04:40:00,
2013-09-16 00:45:00,79.7,79.3,29.88,South,180,2.0,2.0,99,0.01,,,0.02,meteohub,2013-09-16 04:45:00,
2013-09-16 00:50:00,79.7,79.3,29.88,East,90,1.0,2.0,99,0.01,,,0.02,meteohub,2013-09-16 04:50:00,
2013-09-16 00:55:00,79.5,79.2,29.88,East,90,0.0,3.0,99,0.01,,,0.02,meteohub,2013-09-16 04:55:00,
2013-09-16 01:00:00,79.5,79.2,29.89,South,180,1.0,3.0,99,0.01,,,0.02,meteohub,2013-09-16 05:00:00,
2013-09-16 01:05:00,79.3,79.0,29.89,SW,225,0.0,3.0,99,0.01,,,0.02,meteohub,2013-09-16 05:05:00,
2013-09-16 01:10:00,79.2,78.8,29.89,SW,225,1.0,1.0,99,0.01,,,0.02,meteohub,2013-09-16 05:10:00,
2013-09-16 01:15:00,79.0,78.6,29.90,West,270,1.0,1.0,99,0.01,,,0.02,meteohub,2013-09-16 05:15:00,
2013-09-16 01:21:00,79.0,78.6,29.89,North,0,0.0,1.0,99,0.01,,,0.02,meteohub,2013-09-16 05:21:00,
2013-09-16 01:26:00,78.8,78.4,29.89,North,0,0.0,1.0,99,0.01,,,0.02,meteohub,2013-09-16 05:26:00,
2013-09-16 01:31:00,78.8,78.4,29.89,North,0,0.0,1.0,99,0.01,,,0.02,meteohub,2013-09-16 05:31:00,
2013-09-16 01:36:00,78.8,78.4,29.89,East,90,0.0,0.0,99,0.00,,,0.02,meteohub,2013-09-16 05:36:00,
2013-09-16 01:41:00,78.8,78.4,29.89,East,90,0.0,1.0,99,0.00,,,0.02,meteohub,2013-09-16 05:41:00,
2013-09-16 01:46:00,78.8,78.4,29.89,East,90,1.0,1.0,99,0.00,,,0.02,meteohub,2013-09-16 05:46:00,
2013-09-16 01:51:00,78.6,78.3,29.89,East,90,0.0,1.0,99,0.00,,,0.02,meteohub,2013-09-16 05:51:00,
2013-09-16 01:56:00,78.6,78.3,29.89,East,90,0.0,2.0,99,0.00,,,0.02,meteohub,2013-09-16 05:56:00,
2013-09-16 02:01:00,78.4,78.1,29.89,East,90,0.0,2.0,99,0.00,,,0.02,meteohub,2013-09-16 06:01:00,
2013-09-16 02:06:00,78.4,78.1,29.89,East,90,0.0,1.0,99,0.00,,,0.02,meteohub,2013-09-16 06:06:00,
2013-09-16 02:11:00,78.3,77.9,29.89,East,90,0.0,0.0,99,0.00,,,0.02,meteohub,2013-09-16 06:11:00,
2013-09-16 02:16:00,78.3,77.9,29.88,East,90,0.0,0.0,99,0.00,,,0.02,meteohub,2013-09-16 06:16:00,
2013-09-16 02:22:00,78.3,77.9,29.88,East,90,1.0,0.0,99,0.00,,,0.02,meteohub,2013-09-16 06:22:00,
2013-09-16 02:27:00,78.3,77.9,29.88,East,90,1.0,1.0,99,0.00,,,0.02,meteohub,2013-09-16 06:27:00,
2013-09-16 02:32:00,78.3,77.9,29.88,East,90,0.0,2.0,99,0.00,,,0.02,meteohub,2013-09-16 06:32:00,
2013-09-16 02:37:00,78.4,78.1,29.88,East,90,1.0,2.0,99,0.00,,,0.02,meteohub,2013-09-16 06:37:00,
2013-09-16 02:42:00,78.4,78.1,29.87,East,90,0.0,2.0,99,0.00,,,0.02,meteohub,2013-09-16 06:42:00,
2013-09-16 02:47:00,78.4,78.1,29.88,East,90,0.0,2.0,99,0.00,,,0.02,meteohub,2013-09-16 06:47:00,
2013-09-16 02:52:00,78.4,78.1,29.88,East,90,0.0,1.0,99,0.00,,,0.02,meteohub,2013-09-16 06:52:00,
2013-09-16 02:57:00,78.4,78.1,29.88,East,90,0.0,1.0,99,0.00,,,0.02,meteohub,2013-09-16 06:57:00,
2013-09-16 03:02:00,78.4,78.1,29.88,North,0,0.0,1.0,99,0.00,,,0.02,meteohub,2013-09-16 07:02:00,
2013-09-16 03:07:00,78.3,77.9,29.88,East,90,0.0,1.0,99,0.00,,,0.02,meteohub,2013-09-16 07:07:00,
2013-09-16 03:12:00,78.3,77.9,29.87,East,90,0.0,1.0,99,0.00,,,0.02,meteohub,2013-09-16 07:12:00,
2013-09-16 03:17:00,78.1,77.7,29.87,East,90,0.0,1.0,99,0.00,,,0.02,meteohub,2013-09-16 07:17:00,
2013-09-16 03:22:00,78.1,77.7,29.87,East,90,1.0,1.0,99,0.00,,,0.02,meteohub,2013-09-16 07:22:00,
2013-09-16 03:27:00,78.3,77.9,29.87,East,90,0.0,1.0,99,0.00,,,0.02,meteohub,2013-09-16 07:27:00,
2013-09-16 03:32:00,78.4,78.1,29.87,East,90,2.0,2.0,99,0.00,,,0.02,meteohub,2013-09-16 07:32:00,
2013-09-16 03:37:00,78.6,78.3,29.86,East,90,1.0,2.0,99,0.00,,,0.02,meteohub,2013-09-16 07:37:00,
2013-09-16 03:42:00,78.6,78.3,29.88,East,90,0.0,2.0,99,0.00,,,0.02,meteohub,2013-09-16 07:42:00,
2013-09-16 03:47:00,78.4,78.1,29.87,East,90,1.0,2.0,99,0.00,,,0.02,meteohub,2013-09-16 07:47:00,
2013-09-16 03:52:00,78.4,78.1,29.87,East,90,0.0,2.0,99,0.00,,,0.02,meteohub,2013-09-16 07:52:00,
2013-09-16 03:57:00,78.4,78.1,29.87,East,90,1.0,1.0,99,0.00,,,0.02,meteohub,2013-09-16 07:57:00,
2013-09-16 04:02:00,78.4,78.1,29.87,East,90,1.0,2.0,99,0.00,,,0.02,meteohub,2013-09-16 08:02:00,
2013-09-16 04:07:00,78.6,78.3,29.87,East,90,0.0,2.0,99,0.00,,,0.02,meteohub,2013-09-16 08:07:00,
2013-09-16 04:12:00,78.6,78.3,29.88,East,90,0.0,2.0,99,0.00,,,0.02,meteohub,2013-09-16 08:12:00,
2013-09-16 04:17:00,78.6,78.3,29.87,East,90,1.0,2.0,99,0.00,,,0.02,meteohub,2013-09-16 08:17:00,
2013-09-16 04:22:00,79.0,78.6,29.87,East,90,2.0,2.0,99,0.00,,,0.02,meteohub,2013-09-16 08:22:00,
2013-09-16 04:27:00,79.2,78.8,29.87,East,90,1.0,2.0,99,0.00,,,0.02,meteohub,2013-09-16 08:27:00,
2013-09-16 04:32:00,79.3,79.0,29.87,East,90,2.0,2.0,99,0.00,,,0.02,meteohub,2013-09-16 08:32:00,
2013-09-16 04:37:00,79.5,79.2,29.87,East,90,1.0,2.0,99,0.00,,,0.02,meteohub,2013-09-16 08:37:00,
2013-09-16 04:42:00,79.3,79.0,29.87,East,90,1.0,2.0,99,0.00,,,0.02,meteohub,2013-09-16 08:42:00,
2013-09-16 04:47:00,79.2,78.8,29.87,East,90,0.0,2.0,99,0.00,,,0.02,meteohub,2013-09-16 08:47:00,
2013-09-16 04:52:00,79.0,78.6,29.87,East,90,1.0,1.0,99,0.00,,,0.02,meteohub,2013-09-16 08:52:00,
2013-09-16 04:57:00,78.6,78.3,29.86,West,270,0.0,1.0,99,0.00,,,0.02,meteohub,2013-09-16 08:57:00,
2013-09-16 05:02:00,78.4,78.1,29.86,West,270,0.0,1.0,99,0.00,,,0.02,meteohub,2013-09-16 09:02:00,
2013-09-16 05:07:00,78.4,78.1,29.86,North,0,2.0,2.0,99,0.00,,,0.02,meteohub,2013-09-16 09:07:00,
2013-09-16 05:12:00,78.4,78.1,29.86,NW,315,1.0,2.0,99,0.00,,,0.02,meteohub,2013-09-16 09:12:00,
2013-09-16 05:17:00,78.6,78.3,29.87,North,0,2.0,2.0,99,0.00,,,0.02,meteohub,2013-09-16 09:17:00,
2013-09-16 05:22:00,78.8,78.4,29.87,East,90,1.0,2.0,99,0.00,,,0.02,meteohub,2013-09-16 09:22:00,
2013-09-16 05:27:00,78.8,78.4,29.87,East,90,0.0,2.0,99,0.00,,,0.02,meteohub,2013-09-16 09:27:00,
2013-09-16 05:32:00,78.6,78.3,29.87,SW,225,0.0,2.0,99,0.00,,,0.02,meteohub,2013-09-16 09:32:00,
2013-09-16 05:37:00,78.4,78.1,29.87,NW,315,2.0,2.0,99,0.00,,,0.02,meteohub,2013-09-16 09:37:00,
2013-09-16 05:42:00,78.4,78.1,29.87,North,0,1.0,2.0,99,0.00,,,0.02,meteohub,2013-09-16 09:42:00,
2013-09-16 05:47:00,78.4,78.1,29.87,North,0,2.0,2.0,99,0.00,,,0.02,meteohub,2013-09-16 09:47:00,
2013-09-16 05:52:00,78.4,78.1,29.87,North,0,1.0,2.0,99,0.00,,,0.02,meteohub,2013-09-16 09:52:00,
2013-09-16 05:57:00,78.3,77.9,29.87,North,0,0.0,2.0,99,0.00,,,0.02,meteohub,2013-09-16 09:57:00,
2013-09-16 06:02:00,78.3,77.9,29.86,North,0,1.0,2.0,99,0.00,,,0.02,meteohub,2013-09-16 10:02:00,
2013-09-16 06:07:00,78.3,77.9,29.86,North,0,0.0,1.0,99,0.00,,,0.02,meteohub,2013-09-16 10:07:00,
2013-09-16 06:12:00,78.4,78.1,29.86,East,90,2.0,2.0,99,0.00,,,0.02,meteohub,2013-09-16 10:12:00,
2013-09-16 06:17:00,78.6,78.3,29.86,NE,45,1.0,2.0,99,0.00,,,0.02,meteohub,2013-09-16 10:17:00,
2013-09-16 06:22:00,78.8,78.4,29.86,North,0,1.0,2.0,99,0.00,,,0.02,meteohub,2013-09-16 10:22:00,
2013-09-16 06:27:00,79.0,78.6,29.86,NE,45,1.0,2.0,99,0.00,,,0.02,meteohub,2013-09-16 10:27:00,
2013-09-16 06:32:00,79.0,78.6,29.86,East,90,0.0,4.0,99,0.00,,,0.02,meteohub,2013-09-16 10:32:00,
2013-09-16 06:37:00,79.2,78.8,29.86,East,90,2.0,4.0,99,0.00,,,0.02,meteohub,2013-09-16 10:37:00,
2013-09-16 06:42:00,79.5,79.2,29.87,NE,45,6.0,6.0,99,0.00,,,0.02,meteohub,2013-09-16 10:42:00,
2013-09-16 06:47:00,79.7,79.3,29.87,NE,45,8.0,8.0,99,0.00,,,0.02,meteohub,2013-09-16 10:47:00,
2013-09-16 06:52:00,79.9,79.5,29.87,East,90,6.0,11.0,99,0.00,,,0.02,meteohub,2013-09-16 10:52:00,
2013-09-16 06:57:00,79.9,79.5,29.87,East,90,4.0,11.0,99,0.00,,,0.02,meteohub,2013-09-16 10:57:00,
2013-09-16 07:02:00,80.1,79.7,29.87,East,90,4.0,11.0,99,0.00,,,0.02,meteohub,2013-09-16 11:02:00,
2013-09-16 07:07:00,79.9,79.5,29.87,East,90,3.0,8.0,99,0.00,,,0.02,meteohub,2013-09-16 11:07:00,
2013-09-16 07:12:00,80.1,79.7,29.87,East,90,2.0,8.0,99,0.00,,,0.02,meteohub,2013-09-16 11:12:00,
2013-09-16 07:17:00,80.1,79.7,29.87,NE,45,1.0,5.0,99,0.00,,,0.02,meteohub,2013-09-16 11:17:00,
2013-09-16 07:22:00,79.9,79.5,29.87,East,90,1.0,4.0,99,0.00,,,0.02,meteohub,2013-09-16 11:22:00,
2013-09-16 07:27:00,79.9,79.5,29.88,East,90,4.0,4.0,99,0.00,,,0.02,meteohub,2013-09-16 11:27:00,
2013-09-16 07:32:00,80.2,79.9,29.88,East,90,7.0,7.0,99,0.00,,,0.02,meteohub,2013-09-16 11:32:00,
2013-09-16 07:37:00,80.2,79.9,29.88,East,90,7.0,7.0,99,0.00,,,0.02,meteohub,2013-09-16 11:37:00,
2013-09-16 07:42:00,80.2,79.3,29.87,East,90,4.0,9.0,97,0.00,,,0.02,meteohub,2013-09-16 11:42:00,
2013-09-16 07:47:00,79.9,79.0,29.88,East,90,4.0,9.0,97,0.00,,,0.02,meteohub,2013-09-16 11:47:00,
2013-09-16 07:52:00,79.9,78.6,29.88,East,90,8.0,9.0,96,0.00,,,0.02,meteohub,2013-09-16 11:52:00,
2013-09-16 07:57:00,79.7,78.4,29.88,East,90,2.0,8.0,96,0.00,,,0.02,meteohub,2013-09-16 11:57:00,
2013-09-16 08:02:00,79.9,79.0,29.88,SE,135,1.0,8.0,97,0.00,,,0.02,meteohub,2013-09-16 12:02:00,
2013-09-16 08:07:00,80.1,79.2,29.88,East,90,2.0,8.0,97,0.00,,,0.02,meteohub,2013-09-16 12:07:00,
2013-09-16 08:12:00,80.4,79.5,29.88,East,90,3.0,6.0,97,0.01,,,0.04,meteohub,2013-09-16 12:12:00,
2013-09-16 08:17:00,81.0,79.7,29.88,East,90,3.0,6.0,96,0.01,,,0.04,meteohub,2013-09-16 12:17:00,
2013-09-16 08:22:00,81.3,79.7,29.88,East,90,2.0,6.0,95,0.01,,,0.04,meteohub,2013-09-16 12:22:00,
2013-09-16 08:27:00,81.5,79.9,29.89,East,90,2.0,4.0,95,0.01,,,0.04,meteohub,2013-09-16 12:27:00,
2013-09-16 08:32:00,81.9,80.2,29.89,East,90,2.0,5.0,95,0.01,,,0.04,meteohub,2013-09-16 12:32:00,
2013-09-16 08:37:00,81.9,80.6,29.89,East,90,4.0,8.0,96,0.01,,,0.04,meteohub,2013-09-16 12:37:00,
2013-09-16 08:42:00,82.2,81.0,29.89,SE,135,7.0,10.0,96,0.01,,,0.04,meteohub,2013-09-16 12:42:00,
2013-09-16 08:47:00,82.6,81.3,29.89,East,90,3.0,10.0,96,0.01,,,0.04,meteohub,2013-09-16 12:47:00,
2013-09-16 08:52:00,82.8,81.1,29.89,East,90,6.0,10.0,95,0.01,,,0.04,meteohub,2013-09-16 12:52:00,
2013-09-16 08:57:00,82.9,81.0,29.88,East,90,2.0,8.0,94,0.01,,,0.04,meteohub,2013-09-16 12:57:00,
2013-09-16 09:02:00,83.7,81.1,29.88,East,90,9.0,9.0,92,0.01,,,0.04,meteohub,2013-09-16 13:02:00,
2013-09-16 09:07:00,84.6,81.0,29.89,East,90,9.0,11.0,89,0.00,,,0.04,meteohub,2013-09-16 13:07:00,
2013-09-16 09:12:00,84.6,80.2,29.90,East,90,8.0,11.0,87,0.00,,,0.04,meteohub,2013-09-16 13:12:00,
2013-09-16 09:17:00,84.7,79.7,29.90,East,90,8.0,11.0,85,0.00,,,0.04,meteohub,2013-09-16 13:17:00,
2013-09-16 09:22:00,84.4,79.3,29.90,NE,45,8.0,11.0,85,0.00,,,0.04,meteohub,2013-09-16 13:22:00,
2013-09-16 09:27:00,84.2,79.2,29.90,East,90,12.0,12.0,85,0.00,,,0.04,meteohub,2013-09-16 13:27:00,
2013-09-16 09:32:00,84.0,79.7,29.90,SE,135,9.0,12.0,87,0.00,,,0.04,meteohub,2013-09-16 13:32:00,
2013-09-16 09:37:00,84.0,79.7,29.90,East,90,8.0,14.0,87,0.00,,,0.04,meteohub,2013-09-16 13:37:00,
2013-09-16 09:42:00,84.2,80.2,29.90,East,90,6.0,14.0,88,0.00,,,0.04,meteohub,2013-09-16 13:42:00,
2013-09-16 09:47:00,84.2,80.2,29.91,East,90,4.0,14.0,88,0.00,,,0.04,meteohub,2013-09-16 13:47:00,
2013-09-16 09:52:00,84.2,80.2,29.91,East,90,7.0,12.0,88,0.00,,,0.04,meteohub,2013-09-16 13:52:00,
2013-09-16 09:57:00,84.2,79.9,29.91,East,90,9.0,11.0,87,0.00,,,0.04,meteohub,2013-09-16 13:57:00,
2013-09-16 10:02:00,84.2,79.5,29.91,East,90,7.0,11.0,86,0.00,,,0.04,meteohub,2013-09-16 14:02:00,
2013-09-16 10:07:00,83.8,78.8,29.91,East,90,8.0,11.0,85,0.00,,,0.04,meteohub,2013-09-16 14:07:00,
2013-09-16 10:12:00,83.7,79.3,29.92,East,90,8.0,15.0,87,0.00,,,0.04,meteohub,2013-09-16 14:12:00,
2013-09-16 10:17:00,83.1,79.5,29.91,East,90,8.0,15.0,89,0.00,,,0.04,meteohub,2013-09-16 14:17:00,
2013-09-16 10:22:00,82.8,79.2,29.91,SE,135,6.0,15.0,89,0.00,,,0.04,meteohub,2013-09-16 14:22:00,
2013-09-16 10:27:00,82.8,78.8,29.91,East,90,9.0,13.0,88,0.00,,,0.04,meteohub,2013-09-16 14:27:00,
2013-09-16 10:32:00,82.9,79.3,29.92,ESE,113,5.0,11.0,89,0.00,,,0.04,meteohub,2013-09-16 14:32:00,
2013-09-16 10:37:00,83.1,79.2,29.92,East,90,4.0,11.0,88,0.00,,,0.04,meteohub,2013-09-16 14:37:00,
2013-09-16 10:42:00,83.3,79.0,29.92,East,90,8.0,9.0,87,0.00,,,0.04,meteohub,2013-09-16 14:42:00,
2013-09-16 10:47:00,83.3,79.3,29.92,East,90,4.0,8.0,88,0.00,,,0.04,meteohub,2013-09-16 14:47:00,
2013-09-16 10:52:00,82.8,77.7,29.92,SE,135,7.0,8.0,85,0.00,,,0.04,meteohub,2013-09-16 14:52:00,
2013-09-16 10:57:00,82.0,76.3,29.92,East,90,4.0,15.0,83,0.00,,,0.04,meteohub,2013-09-16 14:57:00,
2013-09-16 11:02:00,81.5,75.9,29.93,East,90,7.0,15.0,83,0.00,,,0.04,meteohub,2013-09-16 15:02:00,
2013-09-16 11:07:00,81.3,75.7,29.92,East,90,7.0,15.0,83,0.00,,,0.04,meteohub,2013-09-16 15:07:00,
2013-09-16 11:12:00,81.3,75.7,29.92,South,180,1.0,8.0,83,0.00,,,0.04,meteohub,2013-09-16 15:12:00,
2013-09-16 11:17:00,81.3,75.7,29.91,WSW,248,2.0,7.0,83,0.00,,,0.04,meteohub,2013-09-16 15:17:00,
2013-09-16 11:22:00,81.1,75.6,29.91,South,180,2.0,7.0,83,0.00,,,0.04,meteohub,2013-09-16 15:22:00,
2013-09-16 11:27:00,81.0,75.4,29.92,SW,225,2.0,4.0,83,0.00,,,0.04,meteohub,2013-09-16 15:27:00,
2013-09-16 11:32:00,81.0,75.7,29.92,SW,225,2.0,4.0,84,0.00,,,0.04,meteohub,2013-09-16 15:32:00,
2013-09-16 11:37:00,81.3,76.1,29.92,South,180,1.0,4.0,84,0.00,,,0.04,meteohub,2013-09-16 15:37:00,
2013-09-16 11:42:00,81.9,76.1,29.92,South,180,2.0,4.0,83,0.00,,,0.04,meteohub,2013-09-16 15:42:00,
2013-09-16 11:47:00,82.0,75.9,29.91,South,180,2.0,2.0,82,0.00,,,0.04,meteohub,2013-09-16 15:47:00,
2013-09-16 11:52:00,82.2,76.5,29.91,South,180,1.0,2.0,83,0.00,,,0.04,meteohub,2013-09-16 15:52:00,
2013-09-16 11:57:00,82.4,77.4,29.91,South,180,2.0,2.0,85,0.00,,,0.04,meteohub,2013-09-16 15:57:00,
2013-09-16 12:02:00,82.8,78.4,29.91,South,180,3.0,3.0,87,0.00,,,0.04,meteohub,2013-09-16 16:02:00,
2013-09-16 12:07:00,82.8,78.8,29.92,South,180,2.0,4.0,88,0.00,,,0.04,meteohub,2013-09-16 16:07:00,
2013-09-16 12:12:00,81.9,79.3,29.92,SE,135,8.0,8.0,92,0.00,,,0.04,meteohub,2013-09-16 16:12:00,
2013-09-16 12:17:00,80.8,79.2,29.92,NE,45,8.0,8.0,95,0.00,,,0.04,meteohub,2013-09-16 16:17:00,
2013-09-16 12:22:00,80.1,79.2,29.91,East,90,9.0,12.0,97,0.00,,,0.04,meteohub,2013-09-16 16:22:00,
2013-09-16 12:27:00,80.1,79.7,29.91,East,90,7.0,12.0,99,0.00,,,0.04,meteohub,2013-09-16 16:27:00,
2013-09-16 12:32:00,79.9,79.5,29.91,East,90,4.0,12.0,99,0.00,,,0.04,meteohub,2013-09-16 16:32:00,
2013-09-16 12:37:00,80.1,79.7,29.91,East,90,3.0,9.0,99,0.00,,,0.04,meteohub,2013-09-16 16:37:00,
2013-09-16 12:42:00,80.1,79.7,29.91,East,90,2.0,8.0,99,0.01,,,0.05,meteohub,2013-09-16 16:42:00,
2013-09-16 12:47:00,80.2,79.9,29.92,East,90,3.0,4.0,99,0.01,,,0.05,meteohub,2013-09-16 16:47:00,
2013-09-16 12:52:00,80.1,79.7,29.91,East,90,5.0,6.0,99,0.01,,,0.05,meteohub,2013-09-16 16:52:00,
2013-09-16 12:57:00,79.9,79.5,29.91,ESE,113,4.0,6.0,99,0.01,,,0.05,meteohub,2013-09-16 16:57:00,
2013-09-16 13:02:00,79.9,79.5,29.91,East,90,2.0,6.0,99,0.01,,,0.05,meteohub,2013-09-16 17:02:00,
2013-09-16 13:07:00,79.9,79.5,29.91,East,90,2.0,6.0,99,0.01,,,0.05,meteohub,2013-09-16 17:07:00,
2013-09-16 13:12:00,79.9,79.5,29.91,East,90,2.0,6.0,99,0.02,,,0.06,meteohub,2013-09-16 17:12:00,
2013-09-16 13:17:00,79.9,79.5,29.91,East,90,4.0,4.0,99,0.04,,,0.07,meteohub,2013-09-16 17:17:00,
2013-09-16 13:22:00,79.9,79.3,29.91,SE,135,4.0,4.0,98,0.04,,,0.07,meteohub,2013-09-16 17:22:00,
2013-09-16 13:27:00,79.7,78.8,29.91,South,180,2.0,4.0,97,0.04,,,0.07,meteohub,2013-09-16 17:27:00,
2013-09-16 13:32:00,79.9,78.6,29.90,SW,225,2.0,4.0,96,0.04,,,0.07,meteohub,2013-09-16 17:32:00,
2013-09-16 13:37:00,80.1,78.3,29.89,NE,45,3.0,4.0,94,0.04,,,0.07,meteohub,2013-09-16 17:37:00,
2013-09-16 13:42:00,80.2,78.4,29.89,East,90,2.0,4.0,94,0.02,,,0.07,meteohub,2013-09-16 17:42:00,
2013-09-16 13:47:00,80.6,78.6,29.89,SW,225,2.0,6.0,94,0.02,,,0.07,meteohub,2013-09-16 17:47:00,
2013-09-16 13:52:00,80.8,79.2,29.88,SE,135,2.0,6.0,95,0.02,,,0.07,meteohub,2013-09-16 17:52:00,
2013-09-16 13:57:00,81.1,79.5,29.88,East,90,4.0,6.0,95,0.02,,,0.07,meteohub,2013-09-16 17:57:00,
2013-09-16 14:02:00,81.3,80.1,29.88,East,90,2.0,7.0,96,0.02,,,0.07,meteohub,2013-09-16 18:02:00,
2013-09-16 14:07:00,81.3,79.7,29.87,East,90,4.0,7.0,95,0.01,,,0.07,meteohub,2013-09-16 18:07:00,
2013-09-16 14:12:00,81.5,79.9,29.88,NE,45,4.0,7.0,95,0.01,,,0.07,meteohub,2013-09-16 18:12:00,
2013-09-16 14:17:00,81.9,80.2,29.88,East,90,2.0,7.0,95,0.00,,,0.07,meteohub,2013-09-16 18:17:00,
2013-09-16 14:22:00,82.2,80.2,29.87,East,90,4.0,7.0,94,0.00,,,0.07,meteohub,2013-09-16 18:22:00,
2013-09-16 14:27:00,82.4,79.9,29.87,SE,135,5.0,5.0,92,0.00,,,0.07,meteohub,2013-09-16 18:27:00,
2013-09-16 14:32:00,82.6,79.0,29.87,East,90,8.0,8.0,89,0.00,,,0.07,meteohub,2013-09-16 18:32:00,
2013-09-16 14:37:00,82.8,78.8,29.87,East,90,7.0,8.0,88,0.00,,,0.07,meteohub,2013-09-16 18:37:00,
2013-09-16 14:42:00,82.9,78.6,29.87,East,90,4.0,8.0,87,0.00,,,0.07,meteohub,2013-09-16 18:42:00,
2013-09-16 14:47:00,83.1,78.8,29.87,SE,135,4.0,8.0,87,0.00,,,0.07,meteohub,2013-09-16 18:47:00,
2013-09-16 14:52:00,83.5,79.5,29.87,North,0,1.0,7.0,88,0.00,,,0.07,meteohub,2013-09-16 18:52:00,
2013-09-16 14:57:00,84.2,79.5,29.87,East,90,2.0,6.0,86,0.00,,,0.07,meteohub,2013-09-16 18:57:00,
2013-09-16 15:02:00,84.0,78.3,29.86,SE,135,2.0,4.0,83,0.00,,,0.07,meteohub,2013-09-16 19:02:00,
2013-09-16 15:07:00,84.2,78.8,29.86,East,90,1.0,4.0,84,0.00,,,0.07,meteohub,2013-09-16 19:07:00,
2013-09-16 15:12:00,84.7,79.0,29.86,East,90,1.0,4.0,83,0.00,,,0.07,meteohub,2013-09-16 19:12:00,
2013-09-16 15:17:00,85.1,78.6,29.86,North,0,2.0,3.0,81,0.00,,,0.07,meteohub,2013-09-16 19:17:00,
2013-09-16 15:22:00,84.7,79.7,29.86,North,0,2.0,4.0,85,0.00,,,0.07,meteohub,2013-09-16 19:22:00,
2013-09-16 15:27:00,84.0,79.3,29.85,NW,315,3.0,4.0,86,0.00,,,0.07,meteohub,2013-09-16 19:27:00,
2013-09-16 15:32:00,83.7,79.7,29.86,North,0,2.0,4.0,88,0.00,,,0.07,meteohub,2013-09-16 19:32:00,
2013-09-16 15:37:00,83.3,80.1,29.85,NW,315,1.0,4.0,90,0.00,,,0.07,meteohub,2013-09-16 19:37:00,
2013-09-16 15:42:00,82.9,79.7,29.85,North,0,2.0,3.0,90,0.00,,,0.07,meteohub,2013-09-16 19:42:00,
2013-09-16 15:47:00,82.4,79.5,29.85,North,0,2.0,4.0,91,0.00,,,0.07,meteohub,2013-09-16 19:47:00,
2013-09-16 15:52:00,82.0,79.5,29.85,North,0,2.0,6.0,92,0.00,,,0.07,meteohub,2013-09-16 19:52:00,
2013-09-16 15:57:00,81.7,79.2,29.85,North,0,3.0,6.0,92,0.00,,,0.07,meteohub,2013-09-16 19:57:00,
2013-09-16 16:02:00,81.5,79.3,29.85,NW,315,2.0,6.0,93,0.00,,,0.07,meteohub,2013-09-16 20:02:00,
2013-09-16 16:07:00,81.7,79.2,29.85,North,0,2.0,5.0,92,0.00,,,0.07,meteohub,2013-09-16 20:07:00,
2013-09-16 16:12:00,81.9,78.6,29.85,North,0,3.0,5.0,90,0.00,,,0.07,meteohub,2013-09-16 20:12:00,
2013-09-16 16:17:00,81.9,78.6,29.85,North,0,2.0,4.0,90,0.00,,,0.07,meteohub,2013-09-16 20:17:00,
2013-09-16 16:22:00,82.2,78.6,29.85,NW,315,2.0,4.0,89,0.00,,,0.07,meteohub,2013-09-16 20:22:00,
2013-09-16 16:27:00,82.6,79.3,29.85,North,0,1.0,4.0,90,0.00,,,0.07,meteohub,2013-09-16 20:27:00,
2013-09-16 16:32:00,82.9,79.3,29.85,North,0,2.0,3.0,89,0.00,,,0.07,meteohub,2013-09-16 20:32:00,
2013-09-16 16:37:00,83.1,79.2,29.85,North,0,3.0,3.0,88,0.00,,,0.07,meteohub,2013-09-16 20:37:00,
2013-09-16 16:42:00,83.1,79.2,29.85,NE,45,4.0,5.0,88,0.00,,,0.07,meteohub,2013-09-16 20:42:00,
2013-09-16 16:47:00,83.3,79.3,29.85,North,0,2.0,5.0,88,0.00,,,0.07,meteohub,2013-09-16 20:47:00,
2013-09-16 16:52:00,83.5,78.8,29.85,North,0,2.0,5.0,86,0.00,,,0.07,meteohub,2013-09-16 20:52:00,
2013-09-16 16:57:00,83.7,78.3,29.85,North,0,2.0,4.0,84,0.00,,,0.07,meteohub,2013-09-16 20:57:00,
2013-09-16 17:02:00,83.7,77.9,29.85,North,0,2.0,4.0,83,0.00,,,0.07,meteohub,2013-09-16 21:02:00,
2013-09-16 17:07:00,83.7,76.8,29.85,North,0,3.0,4.0,80,0.00,,,0.07,meteohub,2013-09-16 21:07:00,
2013-09-16 17:12:00,83.5,77.0,29.84,North,0,5.0,5.0,81,0.00,,,0.07,meteohub,2013-09-16 21:12:00,
2013-09-16 17:17:00,83.7,77.5,29.84,North,0,1.0,5.0,82,0.00,,,0.07,meteohub,2013-09-16 21:17:00,
2013-09-16 17:22:00,84.0,76.8,29.84,NW,315,1.0,5.0,79,0.00,,,0.07,meteohub,2013-09-16 21:22:00,
2013-09-16 17:27:00,84.0,76.5,29.83,North,0,2.0,5.0,78,0.00,,,0.07,meteohub,2013-09-16 21:27:00,
2013-09-16 17:32:00,83.8,75.9,29.84,West,270,2.0,4.0,77,0.00,,,0.07,meteohub,2013-09-16 21:32:00,
2013-09-16 17:37:00,83.7,76.1,29.84,North,0,1.0,4.0,78,0.00,,,0.07,meteohub,2013-09-16 21:37:00,
2013-09-16 17:42:00,83.5,75.6,29.84,SW,225,1.0,4.0,77,0.00,,,0.07,meteohub,2013-09-16 21:42:00,
2013-09-16 17:47:00,83.5,75.6,29.84,NW,315,1.0,4.0,77,0.00,,,0.07,meteohub,2013-09-16 21:47:00,
2013-09-16 17:52:00,83.5,75.9,29.84,West,270,1.0,4.0,78,0.00,,,0.07,meteohub,2013-09-16 21:52:00,
2013-09-16 17:57:00,83.1,75.9,29.84,North,0,1.0,3.0,79,0.00,,,0.07,meteohub,2013-09-16 21:57:00,
2013-09-16 18:02:00,83.1,76.3,29.83,North,0,2.0,6.0,80,0.00,,,0.07,meteohub,2013-09-16 22:02:00,
2013-09-16 18:07:00,82.9,76.5,29.83,NW,315,3.0,6.0,81,0.00,,,0.07,meteohub,2013-09-16 22:07:00,
2013-09-16 18:12:00,82.6,77.2,29.83,North,0,4.0,6.0,84,0.00,,,0.07,meteohub,2013-09-16 22:12:00,
2013-09-16 18:17:00,82.4,77.4,29.83,NW,315,1.0,9.0,85,0.00,,,0.07,meteohub,2013-09-16 22:17:00,
2013-09-16 18:22:00,82.0,77.7,29.83,North,0,3.0,9.0,87,0.00,,,0.07,meteohub,2013-09-16 22:22:00,
2013-09-16 18:27:00,81.9,77.9,29.84,North,0,1.0,9.0,88,0.00,,,0.07,meteohub,2013-09-16 22:27:00,
2013-09-16 18:32:00,81.9,77.9,29.83,NE,45,2.0,4.0,88,0.00,,,0.07,meteohub,2013-09-16 22:32:00,
2013-09-16 18:37:00,81.5,77.9,29.84,East,90,2.0,8.0,89,0.00,,,0.07,meteohub,2013-09-16 22:37:00,
2013-09-16 18:42:00,81.3,77.7,29.84,NE,45,7.0,8.0,89,0.00,,,0.07,meteohub,2013-09-16 22:42:00,
2013-09-16 18:47:00,81.1,77.2,29.84,NE,45,4.0,8.0,88,0.00,,,0.07,meteohub,2013-09-16 22:47:00,
2013-09-16 18:52:00,81.1,77.5,29.84,NW,315,4.0,7.0,89,0.00,,,0.07,meteohub,2013-09-16 22:52:00,
2013-09-16 18:57:00,81.0,77.7,29.84,East,90,3.0,7.0,90,0.00,,,0.07,meteohub,2013-09-16 22:57:00,
2013-09-16 19:02:00,80.6,77.7,29.84,East,90,1.0,6.0,91,0.00,,,0.07,meteohub,2013-09-16 23:02:00,
2013-09-16 19:07:00,80.6,77.7,29.84,NE,45,1.0,6.0,91,0.00,,,0.07,meteohub,2013-09-16 23:07:00,
2013-09-16 19:12:00,80.4,77.9,29.84,NE,45,1.0,4.0,92,0.00,,,0.07,meteohub,2013-09-16 23:12:00,
2013-09-16 19:17:00,80.2,78.1,29.85,East,90,0.0,4.0,93,0.00,,,0.07,meteohub,2013-09-16 23:17:00,
2013-09-16 19:22:00,80.2,78.4,29.85,East,90,1.0,4.0,94,0.00,,,0.07,meteohub,2013-09-16 23:22:00,
2013-09-16 19:27:00,80.1,78.3,29.85,East,90,1.0,4.0,94,0.00,,,0.07,meteohub,2013-09-16 23:27:00,
2013-09-16 19:32:00,80.1,78.3,29.85,East,90,1.0,2.0,94,0.00,,,0.07,meteohub,2013-09-16 23:32:00,
2013-09-16 19:37:00,79.9,78.1,29.85,East,90,0.0,3.0,94,0.00,,,0.07,meteohub,2013-09-16 23:37:00,
2013-09-16 19:42:00,79.9,77.4,29.85,NE,45,2.0,3.0,92,0.00,,,0.07,meteohub,2013-09-16 23:42:00,
2013-09-16 19:47:00,79.9,77.0,29.85,East,90,1.0,3.0,91,0.00,,,0.07,meteohub,2013-09-16 23:47:00,
2013-09-16 19:52:00,79.9,77.0,29.85,East,90,1.0,3.0,91,0.00,,,0.07,meteohub,2013-09-16 23:52:00,
2013-09-16 19:57:00,79.9,76.6,29.86,East,90,1.0,4.0,90,0.00,,,0.07,meteohub,2013-09-16 23:57:00,
2013-09-16 20:02:00,80.1,76.8,29.85,East,90,2.0,4.0,90,0.00,,,0.07,meteohub,2013-09-17 00:02:00,
2013-09-16 20:07:00,80.1,76.8,29.85,East,90,2.0,4.0,90,0.00,,,0.00,meteohub,2013-09-17 00:07:00,
2013-09-16 20:12:00,80.1,77.2,29.86,East,90,4.0,4.0,91,0.00,,,0.00,meteohub,2013-09-17 00:12:00,
2013-09-16 20:17:00,80.1,77.2,29.86,East,90,1.0,4.0,91,0.00,,,0.00,meteohub,2013-09-17 00:17:00,
2013-09-16 20:22:00,80.2,77.7,29.86,East,90,2.0,4.0,92,0.00,,,0.00,meteohub,2013-09-17 00:22:00,
2013-09-16 20:27:00,80.2,78.1,29.85,East,90,2.0,7.0,93,0.00,,,0.00,meteohub,2013-09-17 00:27:00,
2013-09-16 20:32:00,80.4,78.3,29.85,East,90,2.0,7.0,93,0.00,,,0.00,meteohub,2013-09-17 00:32:00,
2013-09-16 20:37:00,80.2,78.4,29.86,East,90,4.0,7.0,94,0.00,,,0.00,meteohub,2013-09-17 00:37:00,
2013-09-16 20:42:00,80.2,78.4,29.86,East,90,1.0,4.0,94,0.00,,,0.00,meteohub,2013-09-17 00:42:00,
2013-09-16 20:47:00,80.2,78.6,29.86,ESE,113,2.0,4.0,95,0.00,,,0.00,meteohub,2013-09-17 00:47:00,
2013-09-16 20:52:00,80.2,78.6,29.86,East,90,4.0,4.0,95,0.00,,,0.00,meteohub,2013-09-17 00:52:00,
2013-09-16 20:57:00,80.2,78.6,29.86,East,90,1.0,4.0,95,0.00,,,0.00,meteohub,2013-09-17 00:57:00,
2013-09-16 21:02:00,80.1,78.4,29.86,East,90,3.0,4.0,95,0.00,,,0.00,meteohub,2013-09-17 01:02:00,
2013-09-16 21:07:00,80.2,78.6,29.86,East,90,2.0,5.0,95,0.00,,,0.00,meteohub,2013-09-17 01:07:00,
2013-09-16 21:12:00,80.1,78.4,29.86,East,90,2.0,5.0,95,0.00,,,0.00,meteohub,2013-09-17 01:12:00,
2013-09-16 21:17:00,80.1,78.4,29.86,NE,45,1.0,5.0,95,0.00,,,0.00,meteohub,2013-09-17 01:17:00,
2013-09-16 21:22:00,80.1,78.4,29.86,East,90,2.0,3.0,95,0.00,,,0.00,meteohub,2013-09-17 01:22:00,
2013-09-16 21:27:00,79.9,78.3,29.87,East,90,2.0,3.0,95,0.00,,,0.00,meteohub,2013-09-17 01:27:00,
2013-09-16 21:32:00,79.9,78.6,29.86,North,0,2.0,4.0,96,0.00,,,0.00,meteohub,2013-09-17 01:32:00,
2013-09-16 21:37:00,79.9,78.6,29.86,East,90,2.0,4.0,96,0.00,,,0.00,meteohub,2013-09-17 01:37:00,
2013-09-16 21:42:00,79.9,78.6,29.87,East,90,2.0,4.0,96,0.00,,,0.00,meteohub,2013-09-17 01:42:00,
2013-09-16 21:47:00,79.9,78.6,29.87,East,90,4.0,4.0,96,0.00,,,0.00,meteohub,2013-09-17 01:47:00,
2013-09-16 21:52:00,79.9,78.6,29.87,East,90,2.0,5.0,96,0.00,,,0.00,meteohub,2013-09-17 01:52:00,
2013-09-16 21:57:00,79.9,78.6,29.87,East,90,2.0,5.0,96,0.00,,,0.00,meteohub,2013-09-17 01:57:00,
2013-09-16 22:02:00,79.9,78.6,29.87,NE,45,2.0,5.0,96,0.00,,,0.00,meteohub,2013-09-17 02:02:00,
2013-09-16 22:07:00,79.9,78.6,29.87,East,90,8.0,8.0,96,0.00,,,0.00,meteohub,2013-09-17 02:07:00,
2013-09-16 22:12:00,80.1,78.8,29.87,East,90,4.0,8.0,96,0.00,,,0.00,meteohub,2013-09-17 02:12:00,
2013-09-16 22:17:00,80.1,78.8,29.87,East,90,3.0,8.0,96,0.00,,,0.00,meteohub,2013-09-17 02:17:00,
2013-09-16 22:22:00,80.1,78.8,29.87,NE,45,4.0,8.0,96,0.00,,,0.00,meteohub,2013-09-17 02:22:00,
2013-09-16 22:27:00,80.2,79.0,29.87,East,90,2.0,7.0,96,0.00,,,0.00,meteohub,2013-09-17 02:27:00,
2013-09-16 22:32:00,80.2,79.0,29.87,NE,45,4.0,10.0,96,0.00,,,0.00,meteohub,2013-09-17 02:32:00,
2013-09-16 22:37:00,80.2,79.0,29.87,NE,45,1.0,10.0,96,0.00,,,0.00,meteohub,2013-09-17 02:37:00,
2013-09-16 22:42:00,80.1,78.8,29.87,East,90,3.0,10.0,96,0.00,,,0.00,meteohub,2013-09-17 02:42:00,
2013-09-16 22:47:00,80.1,78.8,29.87,NE,45,4.0,4.0,96,0.00,,,0.00,meteohub,2013-09-17 02:47:00,
2013-09-16 22:52:00,80.1,78.8,29.87,East,90,1.0,4.0,96,0.00,,,0.00,meteohub,2013-09-17 02:52:00,
2013-09-16 22:57:00,79.9,79.0,29.87,East,90,1.0,4.0,97,0.00,,,0.00,meteohub,2013-09-17 02:57:00,
2013-09-16 23:02:00,79.9,79.0,29.87,East,90,2.0,4.0,97,0.00,,,0.00,meteohub,2013-09-17 03:02:00,
2013-09-16 23:07:00,80.1,79.2,29.88,East,90,1.0,4.0,97,0.00,,,0.00,meteohub,2013-09-17 03:07:00,
2013-09-16 23:12:00,80.1,79.2,29.88,East,90,2.0,6.0,97,0.00,,,0.00,meteohub,2013-09-17 03:12:00,
2013-09-16 23:17:00,80.2,79.3,29.88,NE,45,3.0,6.0,97,0.00,,,0.00,meteohub,2013-09-17 03:17:00,
2013-09-16 23:22:00,80.2,79.3,29.88,East,90,2.0,6.0,97,0.00,,,0.00,meteohub,2013-09-17 03:22:00,
2013-09-16 23:27:00,80.1,79.2,29.88,East,90,1.0,5.0,97,0.00,,,0.00,meteohub,2013-09-17 03:27:00,
2013-09-16 23:32:00,80.1,79.5,29.88,North,0,3.0,5.0,98,0.00,,,0.00,meteohub,2013-09-17 03:32:00,
2013-09-16 23:37:00,80.1,79.5,29.88,East,90,3.0,8.0,98,0.00,,,0.00,meteohub,2013-09-17 03:37:00,
2013-09-16 23:42:00,80.1,79.5,29.87,NE,45,2.0,8.0,98,0.00,,,0.00,meteohub,2013-09-17 03:42:00,
2013-09-16 23:47:00,80.1,79.5,29.88,SE,135,2.0,8.0,98,0.00,,,0.00,meteohub,2013-09-17 03:47:00,
2013-09-16 23:52:00,80.2,79.3,29.88,NE,45,2.0,5.0,97,0.00,,,0.00,meteohub,2013-09-17 03:52:00,
2013-09-16 23:57:00,80.2,79.3,29.88,NE,45,1.0,3.0,97,0.00,,,0.00,meteohub,2013-09-17 03:57:00,